Weather History for EGLL - November, 2013

Change the Weather History Date:

Thursday, November 7, 2013

  Actual Average Record
Temperature  
Mean Temperature 48 °F -  
Max Temperature 52 °F 49 °F - ()
Min Temperature 44 °F 38 °F - ()
Degree Days  
Heating Degree Days 17    
Moisture  
Dew Point 45 °F    
Average Humidity 82    
Maximum Humidity 94    
Minimum Humidity 53    
Precipitation  
Precipitation 0.00 in - - ()
Sea Level Pressure  
Sea Level Pressure 29.72 in    
Wind  
Wind Speed 9 mph ()    
Max Wind Speed 18 mph    
Max Gust Speed 18 mph    
Visibility 7.2 miles    
Events Rain    
T = Trace of Precipitation, MM = Missing Value Source: Averaged Metar Reports

Daily Weather History Graph

Daily Weather History Graph

Search for Another Location

Airport or City:

Trip Planner

Search our weather history database for the weather conditions in past years. The results will help you decide how hot, cold, wet, or windy it might be!

Date:

Astronomy

Nov. 07, 2013 Rise Set
Actual Time 7:05 AM GMT 4:24 PM GMT
Civil Twilight 6:30 AM GMT 5:00 PM GMT
Nautical Twilight 5:50 AM GMT 5:40 PM GMT
Astronomical Twilight 5:11 AM GMT 6:19 PM GMT
Moon 11:09 AM GMT (11/7) 8:12 PM GMT (11/7)
Length of Visible Light 10h 30m
Length of Day
9h 18m
Waxing Crescent, 20% of the Moon is Illuminated
Nov 7
Waxing Crescent
Nov 10
First Quarter
Nov 17
Full
Nov 25
Last Quarter
Dec 3
New

Hourly Weather History & Observations

Time (GMT) Temp. Windchill Dew Point Humidity Pressure Visibility Wind Dir Wind Speed Gust Speed Precip Events Conditions
12:00 AM 58 °F - 55 °F 88% 29.53 in 7 mi WSW 18.4 mph - - Rain Light Rain Showers
12:20 AM 59.0 °F - 55.4 °F 88% 29.53 in 6.2 mi WSW 16.1 mph - N/A   Mostly Cloudy
12:50 AM 59.0 °F - 55.4 °F 88% 29.53 in 6.2 mi West 18.4 mph - N/A   Mostly Cloudy
1:20 AM 55.4 °F - 51.8 °F 88% 29.56 in 6.2 mi NW 13.8 mph - N/A   Drizzle
1:50 AM 53.6 °F - 50.0 °F 88% 29.59 in 6.2 mi WNW 10.4 mph - N/A   Mostly Cloudy
2:20 AM 53.6 °F - 50.0 °F 88% 29.62 in 6.2 mi WNW 8.1 mph - N/A   Overcast
2:50 AM 53.6 °F - 50.0 °F 88% 29.62 in 6.2 mi WNW 4.6 mph - N/A   Scattered Clouds
3:00 AM 53 °F - 49 °F 81% 29.64 in 47 mi WNW 5.8 mph - -   Mostly Cloudy
3:20 AM 51.8 °F - 50.0 °F 94% 29.62 in 6.2 mi NW 3.5 mph - N/A   Partly Cloudy
3:50 AM 51.8 °F - 50.0 °F 94% 29.65 in 6.2 mi West 5.8 mph - N/A   Partly Cloudy
4:20 AM 51.8 °F - 50.0 °F 94% 29.65 in 6.2 mi West 5.8 mph - N/A   Scattered Clouds
4:50 AM 50.0 °F - 48.2 °F 94% 29.65 in 6.2 mi West 6.9 mph - N/A   Scattered Clouds
5:20 AM 50.0 °F - 46.4 °F 87% 29.68 in 6.2 mi West 9.2 mph - N/A   Partly Cloudy
5:50 AM 48.2 °F - 46.4 °F 93% 29.68 in - West 6.9 mph - N/A   Clear
6:20 AM 46.4 °F 43.5 °F 44.6 °F 93% 29.68 in 6.2 mi West 5.8 mph - N/A   Partly Cloudy
6:50 AM 48.2 °F - 46.4 °F 93% 29.68 in 6.2 mi West 5.8 mph - N/A   Partly Cloudy
7:20 AM 48.2 °F - 46.4 °F 93% 29.71 in 6.2 mi West 9.2 mph - N/A   Partly Cloudy
7:50 AM 48.2 °F - 46.4 °F 93% 29.71 in 6.2 mi West 6.9 mph - N/A   Partly Cloudy
8:20 AM 48.2 °F - 46.4 °F 93% 29.74 in 6.2 mi West 9.2 mph - N/A   Partly Cloudy
8:50 AM 48.2 °F - 46.4 °F 93% 29.74 in 6.2 mi West 9.2 mph - N/A   Partly Cloudy
9:00 AM 49 °F - 44 °F 79% 29.76 in 19 mi West 8.1 mph - -   Scattered Clouds
9:20 AM 50.0 °F - 46.4 °F 87% 29.74 in - West 8.1 mph - N/A   Clear
9:50 AM 50.0 °F - 44.6 °F 82% 29.77 in 6.2 mi West 9.2 mph - N/A   Partly Cloudy
10:20 AM 50.0 °F - 44.6 °F 82% 29.77 in 6.2 mi West 8.1 mph - N/A   Partly Cloudy
10:50 AM 51.8 °F - 44.6 °F 76% 29.77 in 6.2 mi West 9.2 mph - N/A   Partly Cloudy
11:20 AM 51.8 °F - 46.4 °F 82% 29.77 in 6.2 mi WNW 8.1 mph - N/A   Partly Cloudy
11:50 AM 51.8 °F - 44.6 °F 76% 29.77 in 6.2 mi West 8.1 mph - N/A   Partly Cloudy
12:00 PM 51 °F - 42 °F 62% 29.77 in - West 8.1 mph - -   Scattered Clouds
12:20 PM 51.8 °F - 42.8 °F 71% 29.77 in 6.2 mi West 9.2 mph - N/A   Partly Cloudy
12:50 PM 51.8 °F - 42.8 °F 71% 29.77 in 6.2 mi West 8.1 mph - N/A   Partly Cloudy
1:20 PM 51.8 °F - 42.8 °F 71% 29.77 in - WSW 9.2 mph - N/A   Clear
1:50 PM 51.8 °F - 42.8 °F 71% 29.77 in - WSW 8.1 mph - N/A   Clear
2:20 PM 51.8 °F - 41.0 °F 67% 29.77 in - SW 8.1 mph - N/A   Clear
2:50 PM 51.8 °F - 41.0 °F 67% 29.77 in - WSW 8.1 mph - N/A   Clear
3:00 PM 51 °F - 39 °F 53% 29.76 in 25 mi SSW 8.1 mph - -   Scattered Clouds
3:20 PM 51.8 °F - 41.0 °F 67% 29.77 in - SW 6.9 mph - N/A   Clear
3:50 PM 51.8 °F - 42.8 °F 71% 29.77 in - SW 8.1 mph - N/A   Clear
4:20 PM 50.0 °F - 42.8 °F 76% 29.74 in - SW 6.9 mph - N/A   Clear
4:50 PM 50.0 °F - 42.8 °F 76% 29.77 in - SSW 8.1 mph - N/A   Clear
5:20 PM 50.0 °F - 42.8 °F 76% 29.77 in - SW 8.1 mph - N/A   Clear
5:50 PM 48.2 °F - 44.6 °F 87% 29.77 in - SSW 6.9 mph - N/A   Clear
6:00 PM 49 °F - 42 °F 71% 29.78 in 14 mi SSW 5.8 mph - -   Mostly Cloudy
6:20 PM 48.2 °F - 44.6 °F 87% 29.77 in - SSW 6.9 mph - N/A   Clear
6:50 PM 48.2 °F - 44.6 °F 87% 29.77 in - SW 8.1 mph - N/A   Clear
7:20 PM 48.2 °F - 44.6 °F 87% 29.77 in - SSW 5.8 mph 17.3 mph N/A   Clear
7:50 PM 48.2 °F - 44.6 °F 87% 29.77 in - SW 8.1 mph - N/A   Clear
8:20 PM 48.2 °F - 44.6 °F 87% 29.77 in - SSW 6.9 mph - N/A   Clear
8:50 PM 48.2 °F - 42.8 °F 82% 29.77 in - SW 6.9 mph - N/A   Clear
9:00 PM 48 °F - 43 °F 75% 29.79 in 12 mi SW 8.1 mph - -   Mostly Cloudy
9:20 PM 48.2 °F - 42.8 °F 82% 29.77 in - SW 6.9 mph - N/A   Clear
9:50 PM 48.2 °F - 42.8 °F 82% 29.77 in - SW 9.2 mph - N/A   Clear
10:20 PM 48.2 °F - 42.8 °F 82% 29.77 in - WSW 8.1 mph - N/A   Clear
10:50 PM 46.4 °F 43.5 °F 42.8 °F 87% 29.77 in - SW 5.8 mph 18.4 mph N/A   Clear
11:20 PM 44.6 °F 41.4 °F 42.8 °F 93% 29.77 in - SSW 5.8 mph - N/A   Clear
11:50 PM 44.6 °F 42.2 °F 41.0 °F 87% 29.77 in - South 4.6 mph - N/A   Clear